Location: Sternwarte_Laufen
(47.9344°N, 12.9346°E)
Time: 08:23:23
(UTC+02:00)

ISS - Pass Details

Date: 20 May 2018
Orbit: 402 x 407 km, 51.6° (Epoch: 26 May)

Event Time Altitude Azimuth Distance (km) Brightness Sun altitude
Rises 23:06:53 0° 236° (SW) 2,311 0.0 -17.0°
Reaches altitude 10° 23:08:58 10° 233° (SW) 1,454 -1.1 -17.2°
Maximum altitude 23:12:12 63° 152° (SSE) 452 -4.0 -17.4°
Drops below altitude 10° 23:15:26 10° 70° (ENE) 1,459 -1.1 -17.7°
Sets 23:17:31 0° 68° (ENE) 2,320 0.0 -17.8°
